Date String (YYYY-MM-DD hh:mm:ss) UTC,Instrument flags,absolute air pressure of the measurement (hPa),sample flow rate (lpm),inlet stack bypass flow (lpm),air temperature of the measurement (°C),ambient temperature measured by the external sensor (°C),aerosol sample conditioner tube jacket temperature (°C),OPC LED temperature (°C),internal box temperature (°C),relative humidity of the measurement (%),span deviation,mass concentration of particles derived from Lorenz-Mie calculation of OPC scattering (μg/m³),mass concentration of particles derived from Lorenz-Mie calculation of OPC scattering (μg/m³),mass concentration of particles derived from Lorenz-Mie calculation of OPC scattering (μg/m³)
DateTimeUTC,F1_M11,P_M11,Q1_M11,Q2_M11,T1_M11,T2_M11,T3_M11,T4_M11,T5_M11,U1_M11,ZSPAN_M11,X2_M11,X0_M11,X1_M11
2023-09-23 03:00:00,SystemResetWarning,0827.7,5.00,000.00,028.2,026.9,000.0,036.5,029.9,18.9,0000.0,0005.00,0016.66,0003.68
2023-09-23 03:01:00,SystemResetWarning,0827.7,5.00,000.00,028.2,027.1,000.0,036.5,029.9,19.5,0000.0,0004.93,0016.62,0003.67
2023-09-23 03:02:00,SystemResetWarning,0827.7,5.00,000.00,028.3,027.2,000.0,036.5,030.0,19.4,0000.0,0004.90,0017.79,0003.68
2023-09-23 03:03:00,SystemResetWarning,0827.7,4.99,000.00,028.3,027.2,000.0,036.5,030.0,19.6,0000.0,0004.85,0017.44,0003.70
2023-09-23 03:04:00,SystemResetWarning,0827.7,5.00,000.00,028.3,027.3,000.0,036.5,030.1,20.2,0000.0,0004.90,0018.05,0003.77
2023-09-23 03:05:00,SystemResetWarning,0827.7,5.01,000.00,028.4,027.4,000.0,036.6,030.1,21.0,0000.0,0004.99,0017.61,0003.84
2023-09-23 03:06:00,SystemResetWarning,0827.7,4.99,000.00,028.4,026.9,000.0,036.6,030.1,22.6,0000.0,0005.05,0017.51,0003.92
2023-09-23 03:07:00,SystemResetWarning,0827.7,4.99,000.00,028.3,025.2,000.0,036.5,029.7,22.8,0000.0,0005.14,0017.62,0004.01
2023-09-23 03:08:00,SystemResetWarning,0827.7,5.01,000.00,028.2,024.6,000.0,036.5,029.6,24.1,0000.0,0005.25,0017.78,0004.09
2023-09-23 03:09:00,SystemResetWarning,0827.7,5.01,000.00,028.1,024.7,000.0,036.5,029.4,25.6,0000.0,0005.36,0017.92,0004.19
2023-09-23 03:10:00,SystemResetWarning,0827.7,4.98,000.00,028.1,025.0,000.0,036.5,029.5,26.9,0000.0,0005.56,0019.22,0004.30
2023-09-23 03:11:00,SystemResetWarning,0827.8,5.00,000.00,028.0,025.3,000.0,036.5,029.5,27.7,0000.0,0005.70,0019.40,0004.39
2023-09-23 03:12:00,SystemResetWarning,0827.8,5.02,000.00,028.0,025.7,000.0,036.5,029.6,28.1,0000.0,0005.85,0019.13,0004.49
2023-09-23 03:13:00,SystemResetWarning,0827.8,5.00,000.00,028.1,026.0,000.0,036.5,029.6,28.6,0000.0,0005.92,0018.12,0004.57
2023-09-23 03:14:00,SystemResetWarning,0827.8,4.99,000.00,028.1,026.2,000.0,036.4,029.7,28.7,0000.0,0006.06,0019.53,0004.64
2023-09-23 03:15:00,SystemResetWarning,0827.8,4.99,000.00,028.1,026.4,000.0,036.4,029.8,29.1,0000.0,0006.13,0019.74,0004.68
2023-09-23 03:16:00,SystemResetWarning,0827.8,5.00,000.00,028.1,026.6,000.0,036.4,029.8,29.2,0000.0,0006.20,0020.23,0004.73
2023-09-23 03:17:00,SystemResetWarning,0827.8,5.00,000.00,028.2,026.8,000.0,036.4,029.9,29.3,0000.0,0006.29,0020.88,0004.78
2023-09-23 03:18:00,SystemResetWarning,0827.8,5.01,000.00,028.2,026.9,000.0,036.5,029.9,29.6,0000.0,0006.32,0020.36,0004.79
2023-09-23 03:19:00,SystemResetWarning,0827.8,5.00,000.00,028.2,027.0,000.0,036.5,030.0,29.6,0000.0,0006.33,0020.81,0004.80
2023-09-23 03:20:00,SystemResetWarning,0827.7,4.98,000.00,028.3,027.1,000.0,036.5,030.0,29.7,0000.0,0006.34,0021.03,0004.80
2023-09-23 03:21:00,SystemResetWarning,0827.7,5.00,000.00,028.3,027.1,000.0,036.5,030.0,29.6,0000.0,0006.28,0020.45,0004.78
2023-09-23 03:22:00,SystemResetWarning,0827.7,5.01,000.00,028.3,027.2,000.0,036.5,030.1,29.6,0001.0,0006.22,0019.31,0004.77
2023-09-23 03:23:00,SystemResetWarning,0827.8,5.00,000.00,028.4,027.3,000.0,036.6,030.1,29.8,0002.5,0006.16,0019.47,0004.73
2023-09-23 03:24:00,SystemResetWarning,0827.8,4.99,000.00,028.4,027.3,000.0,036.6,030.1,29.8,0002.2,0006.13,0019.39,0004.68
2023-09-23 03:25:00,SystemResetWarning,0827.8,5.00,000.00,028.4,027.4,000.0,036.6,030.2,29.7,0001.8,0006.13,0018.35,0004.65
2023-09-23 03:26:00,SystemResetWarning,0827.7,5.00,000.00,028.4,026.5,000.0,036.6,030.0,29.8,0001.6,0006.07,0017.30,0004.61
2023-09-23 03:27:00,SystemResetWarning,0827.7,5.00,000.00,028.3,024.9,000.0,036.6,029.6,29.9,0000.7,0006.01,0017.03,0004.57
2023-09-23 03:28:00,SystemResetWarning,0827.7,5.00,000.00,028.2,024.5,000.0,036.5,029.5,30.0,0000.0,0005.93,0016.49,0004.52
2023-09-23 03:29:00,SystemResetWarning,0827.7,5.01,000.00,028.1,024.7,000.0,036.5,029.4,30.3,0000.0,0005.89,0017.05,0004.46
2023-09-23 03:30:00,SystemResetWarning,0827.7,5.00,000.00,028.1,025.0,000.0,036.5,029.5,30.6,0000.0,0005.81,0017.74,0004.40
2023-09-23 03:31:00,SystemResetWarning,0827.6,4.99,000.00,028.0,025.4,000.0,036.5,029.5,30.7,0000.0,0005.71,0016.27,0004.33
2023-09-23 03:32:00,SystemResetWarning,0827.7,5.00,000.00,028.0,025.7,000.0,036.5,029.6,30.7,0000.0,0005.66,0015.81,0004.25
2023-09-23 03:33:00,SystemResetWarning,0827.7,5.01,000.00,028.1,026.0,000.0,036.5,029.7,30.9,0000.0,0005.53,0015.85,0004.16
2023-09-23 03:34:00,SystemResetWarning,0827.7,5.00,000.00,028.1,026.2,000.0,036.5,029.7,31.0,0000.0,0005.44,0015.62,0004.09
2023-09-23 03:35:00,SystemResetWarning,0827.7,4.99,000.00,028.1,026.4,000.0,036.5,029.8,31.2,0000.0,0005.38,0015.98,0004.04
2023-09-23 03:36:00,SystemResetWarning,0827.7,4.99,000.00,028.1,026.6,000.0,036.5,029.8,31.1,0000.0,0005.32,0017.03,0004.01
2023-09-23 03:37:00,SystemResetWarning,0827.7,5.00,000.00,028.2,026.7,000.0,036.5,029.9,31.1,0000.0,0005.28,0016.78,0003.98
2023-09-23 03:38:00,SystemResetWarning,0827.7,5.01,000.00,028.2,026.9,000.0,036.5,029.9,31.1,0000.0,0005.29,0017.13,0003.94
2023-09-23 03:39:00,SystemResetWarning,0827.7,5.02,000.00,028.2,027.0,000.0,036.5,030.0,31.0,0000.0,0005.30,0016.79,0003.92
2023-09-23 03:40:00,SystemResetWarning,0827.7,4.99,000.00,028.3,027.1,000.0,036.5,030.0,30.9,0000.0,0005.26,0016.13,0003.90
2023-09-23 03:41:00,SystemResetWarning,0827.7,4.99,000.00,028.3,027.1,000.0,036.5,030.0,30.8,0000.0,0005.25,0014.90,0003.90
2023-09-23 03:42:00,SystemResetWarning,0827.8,4.99,000.00,028.3,027.2,000.0,036.6,030.1,30.6,0000.0,0005.28,0014.84,0003.93
2023-09-23 03:43:00,SystemResetWarning,0827.8,5.01,000.00,028.4,027.3,000.0,036.6,030.1,30.7,0000.0,0005.30,0015.05,0003.95
2023-09-23 03:44:00,SystemResetWarning,0827.8,5.02,000.00,028.4,027.3,000.0,036.6,030.2,30.8,0000.0,0005.40,0015.15,0004.02
2023-09-23 03:45:00,SystemResetWarning,0827.8,4.98,000.00,028.4,027.4,000.0,036.6,030.2,30.7,-000.1,0005.53,0016.25,0004.08
2023-09-23 03:46:00,SystemResetWarning,0827.7,5.00,000.00,028.5,027.4,000.0,036.6,030.2,30.8,0000.0,0005.62,0016.05,0004.15
2023-09-23 03:47:00,SystemResetWarning,0827.8,5.01,000.00,028.5,027.5,000.0,036.7,030.3,30.8,0000.0,0005.67,0015.09,0004.19
2023-09-23 03:48:00,SystemResetWarning,0827.8,5.01,000.00,028.5,027.5,000.0,036.7,030.3,30.7,0000.0,0005.70,0014.87,0004.23
2023-09-23 03:49:00,SystemResetWarning,0827.8,4.99,000.00,028.5,026.4,000.0,036.7,030.1,30.6,0000.0,0005.79,0014.37,0004.29
2023-09-23 03:50:00,SystemResetWarning,0827.7,4.99,000.00,028.4,024.8,000.0,036.6,029.8,30.7,0000.0,0005.85,0014.76,0004.33
2023-09-23 03:51:00,SystemResetWarning,0827.8,5.02,000.00,028.3,024.5,000.0,036.6,029.7,30.8,0000.0,0005.88,0017.27,0004.37
2023-09-23 03:52:00,SystemResetWarning,0827.8,5.00,000.00,028.2,024.7,000.0,036.6,029.6,31.0,0000.0,0005.95,0017.85,0004.40
2023-09-23 03:53:00,SystemResetWarning,0827.8,5.00,000.00,028.2,025.0,000.0,036.6,029.6,30.9,0000.0,0006.01,0018.73,0004.44
2023-09-23 03:54:00,SystemResetWarning,0827.8,5.00,000.00,028.1,025.4,000.0,036.6,029.6,31.0,0000.0,0006.10,0020.23,0004.45
2023-09-23 03:55:00,SystemResetWarning,0827.8,5.00,000.00,028.2,025.8,000.0,036.6,029.7,31.0,0000.0,0006.08,0020.05,0004.47
2023-09-23 03:56:00,SystemResetWarning,0827.8,5.00,000.00,028.2,026.1,000.0,036.6,029.7,31.0,0000.0,0006.12,0020.26,0004.48
2023-09-23 03:57:00,SystemResetWarning,0827.8,5.00,000.00,028.2,026.3,000.0,036.6,029.8,30.9,0000.0,0006.10,0020.21,0004.50
2023-09-23 03:58:00,SystemResetWarning,0827.8,4.98,000.00,028.2,026.5,000.0,036.6,029.9,31.0,0000.0,0006.12,0021.17,0004.52
2023-09-23 03:59:00,SystemResetWarning,0827.8,4.99,000.00,028.2,026.7,000.0,036.6,029.9,30.9,0000.0,0006.18,0023.88,0004.54
